Погода в Уахигуя

Буркина-Фасо     13°33′53″N   2°24′47″W
темп.,
°C
ветер,
м/с
пор.,
м/с
влажн.,
%
обл.,
%
осадки,
мм/ч
давл.,
гПа
погр.,
м
9 августа, вт
вт900:00+28ююз46625 0.0 1009186
03:00+26ююз4869100 0.0 1009293
06:00+25юз5975100 0.0 1011379
09:00+26ююз5671100 1.5 1013498
12:00+30зюз455991 1.6 1011676
15:00+33сз114726 0.0 10091457
18:00+33в11488 0.0 1007497
21:00+22юв121589100 5.8 1013498
10 августа, ср
ср1000:00+23з6887100 9.8 1012277
03:00+24ююз2482100 0.0 1010137
06:00+23ююв4782100 0.0 1011253
09:00+27ю5670100 0.0 1012590
12:00+31ююз555417 0.0 10111380
15:00+33ююз4344100 0.0 10082054
18:00+30ю5656100 0.1 1008355
21:00+28ю6965100 0.0 1010438
11 августа, чт
чт1100:00+27ююз5971100 0.0 1012472
03:00+26ююз487597 0.0 1011431
06:00+25ююз49796 0.0 1012404
09:00+28юз67655 0.0 1013765
12:00+31юз655254 0.0 10121575
15:00+31ююз4450100 0.0 10091413
18:00+30юз465641 0.0 1009685
21:00+28юз5965100 0.0 1010319
12 августа, пт
пт1200:00+27юз51069100 0.0 1012365
03:00+26зюз61174100 0.0 1010420
06:00+25зюз51078100 0.0 1012427
09:00+27з7969100 0.0 1013596
12:00+22ююв5694100 16.7 1014214
15:00+23ю4579100 1.1 1012285
18:00+25ююз237698 1.1 1011247
21:00+24з228344 0.0 101278
13 августа, сб
сб1300:00+23ююв2381100 0.0 1013146
03:00+23ююз2383100 0.3 1012131
06:00+23ююз3583100 0.3 1012186
09:00+25ююз117022 0.0 1014617
12:00+29ююз225374 0.0 10131129
15:00+32юз32465 0.0 10101526
18:00+31юз33525 0.0 1010251
21:00+28юз46635 0.0 1012179